START_TIME,STEP,MOV.,M15,t_acc.,M20,t_acc.
1989-08-26T09:00:44.580 ,3,0,0.,24.0,0.,24.0
1989-08-26T09:01:08.580 ,2,1,0.,24.0,0.,24.0
1989-08-26T09:01:32.580 ,2,0,0.,24.0,0.,24.0
1989-08-26T09:01:56.580 ,1,1,0.,24.0,0.,24.0
1989-08-26T09:02:20.580 ,1,0,0.,24.0,0.,24.0
1989-08-26T09:02:44.580 ,0,1,0.,24.0,0.,24.0
1989-08-26T09:03:08.580 ,0,0,0.,24.0,0.,24.0
1989-08-26T09:03:32.580 ,0,1,0.,24.0,0.,24.0
1989-08-26T09:03:56.580 ,0,0,0.,24.0,0.,24.0
1989-08-26T09:04:20.580 ,1,1,0.,24.0,0.,24.0
1989-08-26T09:04:44.580 ,1,0,0.,24.0,0.,24.0
1989-08-26T09:05:08.580 ,2,1,0.,24.0,0.,24.0
1989-08-26T09:05:32.580 ,2,0,0.,24.0,0.,24.0
1989-08-26T09:05:56.580 ,3,1,0.,24.0,0.,24.0
1989-08-26T09:06:20.580 ,3,0,0.,24.0,0.,24.0
1989-08-26T09:06:44.580 ,4,1,0.,24.0,0.,24.0
1989-08-26T09:07:08.580 ,4,0,0.,24.0,0.,24.0
1989-08-26T09:07:32.580 ,5,1,0.,24.0,0.,24.0
1989-08-26T09:07:56.580 ,5,0,0.,24.0,0.,24.0
1989-08-26T09:08:20.580 ,6,1,0.,24.0,0.,24.0
1989-08-26T09:08:44.580 ,6,0,0.,24.0,0.,24.0
1989-08-26T09:09:08.580 ,7,1,0.,24.0,0.,24.0
1989-08-26T09:09:32.580 ,7,0,0.,24.0,0.,24.0
1989-08-26T09:09:56.580 ,7,1,0.,24.0,0.,24.0
1989-08-26T09:10:20.580 ,7,0,0.,24.0,0.,24.0
1989-08-26T09:10:44.580 ,6,1,0.,24.0,0.,24.0
1989-08-26T09:11:08.580 ,6,0,0.,24.0,0.,24.0
1989-08-26T09:11:32.580 ,5,1,0.,24.0,0.,24.0
1989-08-26T09:11:56.580 ,5,0,0.,24.0,0.,24.0
1989-08-26T09:12:20.580 ,4,1,0.,24.0,0.,24.0
1989-08-26T09:12:44.580 ,4,0,0.,24.0,0.,24.0
1989-08-26T09:13:08.580 ,3,1,0.,24.0,0.,24.0
1989-08-26T09:13:32.580 ,3,0,0.,24.0,0.,24.0
1989-08-26T09:13:56.580 ,2,1,0.,24.0,0.,24.0
1989-08-26T09:14:20.580 ,2,0,0.,24.0,0.,24.0
1989-08-26T09:14:44.580 ,1,1,0.,24.0,0.,24.0
1989-08-26T09:15:08.580 ,1,0,0.,24.0,0.,24.0
1989-08-26T09:15:32.580 ,0,1,0.,24.0,0.,24.0
1989-08-26T09:15:56.580 ,0,0,0.,24.0,0.,24.0
1989-08-26T09:16:20.580 ,0,1,0.,24.0,0.,24.0
1989-08-26T09:16:44.580 ,0,0,0.,24.0,0.,24.0
1989-08-26T09:17:08.570 ,1,1,0.,24.0,0.,24.0
1989-08-26T09:17:32.580 ,1,0,0.,24.0,0.,24.0
1989-08-26T09:17:56.580 ,2,1,0.,24.0,0.,24.0
1989-08-26T09:18:20.580 ,2,0,0.,24.0,0.,24.0
1989-08-26T09:18:44.580 ,3,1,0.,24.0,0.,24.0
1989-08-26T09:19:08.580 ,3,0,0.,24.0,0.,24.0
1989-08-26T09:19:32.580 ,4,1,0.,24.0,0.,24.0
1989-08-26T09:19:56.580 ,4,0,0.,24.0,0.,24.0
1989-08-26T09:20:20.580 ,5,1,0.,24.0,0.,24.0
1989-08-26T09:20:44.580 ,5,0,0.,24.0,0.,24.0
1989-08-26T09:21:08.580 ,6,1,0.,24.0,0.,24.0
1989-08-26T09:21:32.580 ,6,0,0.,24.0,0.,24.0
1989-08-26T09:21:56.570 ,7,1,0.,24.0,0.,24.0
1989-08-26T09:22:20.570 ,7,0,0.,24.0,0.,24.0
1989-08-26T09:22:44.570 ,7,1,0.,24.0,0.,24.0
1989-08-26T09:23:08.570 ,7,0,0.,24.0,0.,24.0
1989-08-26T09:23:32.570 ,6,1,0.,24.0,0.,24.0
1989-08-26T09:23:56.570 ,6,0,0.,24.0,0.,24.0
1989-08-26T09:24:20.570 ,5,1,0.,24.0,0.,24.0
1989-08-26T09:24:44.570 ,5,0,0.,24.0,0.,24.0
1989-08-26T09:25:08.570 ,4,1,0.,24.0,0.,24.0
1989-08-26T09:25:32.570 ,4,0,0.,24.0,0.,24.0
1989-08-26T09:25:56.570 ,3,1,0.,24.0,0.,24.0
1989-08-26T09:26:20.570 ,3,0,0.,24.0,0.,24.0
1989-08-26T09:26:44.570 ,2,1,0.,24.0,0.,24.0
1989-08-26T09:27:08.570 ,2,0,0.,24.0,0.,24.0
1989-08-26T09:27:32.570 ,1,1,0.,24.0,0.,24.0
1989-08-26T09:27:56.570 ,1,0,0.,24.0,0.,24.0
1989-08-26T09:28:20.570 ,0,1,0.,24.0,0.,24.0
1989-08-26T09:28:44.570 ,0,0,0.,24.0,0.,24.0
1989-08-26T09:29:08.570 ,0,1,0.,24.0,0.,24.0
1989-08-26T09:29:32.570 ,0,0,0.,24.0,0.,24.0
1989-08-26T09:29:56.570 ,1,1,0.,24.0,0.,24.0
1989-08-26T09:30:20.570 ,1,0,0.,24.0,0.,24.0
1989-08-26T09:30:44.570 ,2,1,0.,24.0,0.,24.0
1989-08-26T09:31:08.570 ,2,0,0.,24.0,0.,24.0
1989-08-26T09:31:32.570 ,3,1,0.,24.0,0.,24.0
1989-08-26T09:31:56.570 ,3,0,0.,24.0,0.,24.0
1989-08-26T09:32:20.570 ,4,1,0.,24.0,0.,24.0
1989-08-26T09:32:44.570 ,4,0,0.,24.0,0.,24.0
1989-08-26T09:33:08.570 ,5,1,0.,24.0,0.,24.0
1989-08-26T09:33:32.570 ,5,0,0.,24.0,0.,24.0
1989-08-26T09:33:56.570 ,6,1,0.,24.0,0.,24.0
1989-08-26T09:34:20.570 ,6,0,0.,24.0,0.,24.0
1989-08-26T09:34:44.570 ,7,1,0.,24.0,0.,24.0
1989-08-26T09:35:08.570 ,7,0,0.,24.0,0.,24.0
1989-08-26T09:35:32.570 ,7,1,0.,24.0,0.,24.0
1989-08-26T09:35:56.570 ,7,0,0.,24.0,0.,24.0
1989-08-26T09:36:20.570 ,6,1,0.,24.0,0.,24.0
1989-08-26T09:36:44.570 ,6,0,0.,24.0,0.,24.0
1989-08-26T09:37:08.570 ,5,1,0.,24.0,0.,24.0
1989-08-26T09:37:32.570 ,5,0,0.,24.0,0.,24.0
1989-08-26T09:37:56.570 ,4,1,0.,24.0,0.,24.0
1989-08-26T09:38:20.570 ,4,0,0.,24.0,0.,24.0
1989-08-26T09:38:44.570 ,3,1,0.,24.0,0.,24.0
1989-08-26T09:39:08.570 ,3,0,0.,24.0,0.,24.0
1989-08-26T09:39:32.570 ,2,1,0.,24.0,0.,24.0
1989-08-26T09:39:56.570 ,2,0,0.,24.0,0.,24.0
1989-08-26T09:40:20.570 ,1,1,0.,24.0,0.,24.0
1989-08-26T09:40:44.570 ,1,0,0.,24.0,0.,24.0
1989-08-26T09:41:08.570 ,0,1,0.,24.0,0.,24.0
1989-08-26T09:41:32.570 ,0,0,0.,24.0,0.,24.0
1989-08-26T09:41:56.570 ,0,1,0.,24.0,0.,24.0
1989-08-26T09:42:20.570 ,0,0,0.,24.0,0.,24.0
1989-08-26T09:42:44.570 ,1,1,0.,24.0,0.,24.0
1989-08-26T09:43:08.570 ,1,0,0.,24.0,0.,24.0
1989-08-26T09:43:32.570 ,2,1,0.,24.0,0.,24.0
1989-08-26T09:43:56.570 ,2,0,0.,24.0,0.,24.0
1989-08-26T09:44:20.570 ,3,1,0.,24.0,0.,24.0
1989-08-26T09:44:44.570 ,3,0,0.,24.0,0.,24.0
1989-08-26T09:45:08.570 ,4,1,0.,24.0,0.,24.0
1989-08-26T09:45:32.570 ,4,0,0.,24.0,0.,24.0
1989-08-26T09:45:56.570 ,5,1,0.,24.0,0.,24.0
1989-08-26T09:46:20.570 ,5,0,0.,24.0,0.,24.0
1989-08-26T09:46:44.570 ,6,1,0.,24.0,0.,24.0
1989-08-26T09:47:08.570 ,6,0,0.,24.0,0.,24.0
1989-08-26T09:47:32.570 ,7,1,0.,24.0,0.,24.0
1989-08-26T09:47:56.570 ,7,0,0.,24.0,0.,24.0
1989-08-26T09:48:20.570 ,7,1,0.,24.0,0.,24.0
1989-08-26T09:48:44.570 ,7,0,0.,24.0,0.,24.0
1989-08-26T09:49:08.570 ,6,1,0.,24.0,0.,24.0
1989-08-26T09:49:32.570 ,6,0,0.,24.0,0.,24.0
1989-08-26T09:49:56.570 ,5,1,0.,24.0,0.,24.0
1989-08-26T09:50:20.570 ,5,0,0.,24.0,0.,24.0
1989-08-26T09:50:44.570 ,4,1,0.,24.0,0.,24.0
1989-08-26T09:51:08.570 ,4,0,0.,24.0,0.,24.0
1989-08-26T09:51:32.570 ,3,1,0.,24.0,0.,24.0
1989-08-26T09:51:56.570 ,3,0,0.,24.0,0.,24.0
1989-08-26T09:52:20.570 ,2,1,0.,24.0,0.,24.0
1989-08-26T09:52:44.570 ,2,0,0.,24.0,0.,24.0
1989-08-26T09:53:08.570 ,1,1,0.,24.0,0.,24.0
1989-08-26T09:53:32.570 ,1,0,0.,24.0,0.,24.0
1989-08-26T09:53:56.570 ,0,1,0.,24.0,0.,24.0
1989-08-26T09:54:20.570 ,0,0,0.,24.0,0.,24.0
1989-08-26T09:54:44.570 ,0,1,0.,24.0,0.,24.0
1989-08-26T09:55:08.570 ,0,0,0.,24.0,0.,24.0
1989-08-26T09:55:32.570 ,1,1,0.,24.0,0.,24.0
1989-08-26T09:55:56.570 ,1,0,0.,24.0,0.,24.0
1989-08-26T09:56:20.570 ,2,1,0.,24.0,0.,24.0
1989-08-26T09:56:44.570 ,2,0,0.,24.0,0.,24.0
1989-08-26T09:57:08.570 ,3,1,0.,24.0,0.,24.0
1989-08-26T09:57:32.570 ,3,0,0.,24.0,0.,24.0
1989-08-26T09:57:56.570 ,4,1,0.,24.0,0.,24.0
1989-08-26T09:58:20.570 ,4,0,0.,24.0,0.,24.0
1989-08-26T09:58:44.570 ,5,1,0.,24.0,0.,24.0
1989-08-26T09:59:08.570 ,5,0,0.,24.0,0.,24.0
1989-08-26T09:59:32.570 ,6,1,0.,24.0,0.,24.0
1989-08-26T09:59:56.570 ,6,0,0.,24.0,0.,24.0
1989-08-26T10:00:20.570 ,7,1,0.,24.0,0.,24.0
1989-08-26T10:00:44.570 ,7,0,0.,24.0,0.,24.0
1989-08-26T10:01:08.570 ,7,1,0.,24.0,0.,24.0
1989-08-26T10:01:32.570 ,7,0,0.,24.0,0.,24.0
1989-08-26T10:01:56.570 ,6,1,0.,24.0,0.,24.0
1989-08-26T10:02:20.570 ,6,0,0.,24.0,0.,24.0
1989-08-26T10:02:44.570 ,5,1,0.,24.0,0.,24.0
1989-08-26T10:03:08.570 ,5,0,0.,24.0,0.,24.0
1989-08-26T10:03:32.570 ,4,1,0.,24.0,0.,24.0
1989-08-26T10:03:56.570 ,4,0,0.,24.0,0.,24.0
1989-08-26T10:04:20.570 ,3,1,0.,24.0,0.,24.0
1989-08-26T10:04:44.570 ,3,0,0.,24.0,0.,24.0
1989-08-26T10:05:08.570 ,2,1,0.,24.0,0.,24.0
1989-08-26T10:05:32.570 ,2,0,0.,24.0,0.,24.0
1989-08-26T10:05:56.570 ,1,1,0.,24.0,0.,24.0
1989-08-26T10:06:20.570 ,0,0,0.,24.0,0.,24.0
1989-08-26T10:07:22.970 ,0,0,0.,24.0,0.,24.0
1989-08-26T10:07:32.570 ,0,1,0.,24.0,0.,24.0
1989-08-26T10:07:56.570 ,0,0,0.,24.0,0.,24.0
1989-08-26T10:08:20.570 ,1,1,0.,24.0,0.,24.0
1989-08-26T10:08:44.570 ,1,0,0.,24.0,0.,24.0
1989-08-26T10:09:08.570 ,2,1,0.,24.0,0.,24.0
1989-08-26T10:09:32.570 ,2,0,0.,24.0,0.,24.0
1989-08-26T10:09:56.570 ,3,1,0.,24.0,0.,24.0
1989-08-26T10:10:20.570 ,3,0,0.,24.0,0.,24.0
1989-08-26T10:10:44.570 ,4,1,0.,24.0,0.,24.0
1989-08-26T10:11:08.570 ,4,0,0.,24.0,0.,24.0
1989-08-26T10:11:32.570 ,5,1,0.,24.0,0.,24.0
1989-08-26T10:11:56.570 ,5,0,0.,24.0,0.,24.0
1989-08-26T10:12:20.570 ,6,1,0.,24.0,0.,24.0
1989-08-26T10:12:44.570 ,6,0,0.,24.0,0.,24.0
1989-08-26T10:13:08.570 ,7,1,0.,24.0,0.,24.0
1989-08-26T10:13:32.570 ,7,0,0.,24.0,0.,24.0
1989-08-26T10:13:56.570 ,7,1,0.,24.0,0.,24.0
1989-08-26T10:14:20.570 ,7,0,0.,24.0,0.,24.0
1989-08-26T10:14:44.570 ,6,1,0.,24.0,0.,24.0
1989-08-26T10:15:08.570 ,6,0,0.,24.0,0.,24.0
1989-08-26T10:15:32.570 ,5,1,0.,24.0,0.,24.0
1989-08-26T10:15:56.570 ,5,0,0.,24.0,0.,24.0
1989-08-26T10:16:20.570 ,4,1,0.,24.0,0.,24.0
1989-08-26T10:16:44.570 ,4,0,0.,24.0,0.,24.0
1989-08-26T10:17:08.570 ,3,1,0.,24.0,0.,24.0
1989-08-26T10:17:32.570 ,3,0,0.,24.0,0.,24.0
1989-08-26T10:17:56.570 ,2,1,0.,24.0,0.,24.0
1989-08-26T10:18:20.570 ,2,0,0.,24.0,0.,24.0
1989-08-26T10:18:44.570 ,1,1,0.,24.0,0.,24.0
1989-08-26T10:19:08.570 ,1,0,0.,24.0,0.,24.0
1989-08-26T10:19:32.570 ,0,1,0.,24.0,0.,24.0
1989-08-26T10:19:56.570 ,0,0,0.,24.0,0.,24.0
1989-08-26T10:20:20.570 ,0,1,0.,24.0,0.,24.0
1989-08-26T10:20:44.570 ,0,0,0.,24.0,0.,24.0
1989-08-26T10:21:08.570 ,1,1,0.,24.0,0.,24.0
1989-08-26T10:21:32.570 ,1,0,0.,24.0,0.,24.0
1989-08-26T10:21:56.570 ,2,1,0.,24.0,0.,24.0
1989-08-26T10:22:20.570 ,2,0,0.,24.0,0.,24.0
1989-08-26T10:22:44.570 ,3,1,0.,24.0,0.,24.0
1989-08-26T10:23:08.570 ,3,0,0.,24.0,0.,24.0
1989-08-26T10:23:32.570 ,4,1,0.,24.0,0.,24.0
1989-08-26T10:23:56.570 ,4,0,0.,24.0,0.,24.0
1989-08-26T10:24:20.570 ,5,1,0.,24.0,0.,24.0
1989-08-26T10:24:44.570 ,5,0,0.,24.0,0.,24.0
1989-08-26T10:25:08.570 ,6,1,0.,24.0,0.,24.0
1989-08-26T10:25:32.570 ,6,0,0.,24.0,0.,24.0
1989-08-26T10:25:56.570 ,7,1,0.,24.0,0.,24.0
1989-08-26T10:26:20.570 ,7,0,0.,24.0,0.,24.0
1989-08-26T10:26:44.570 ,7,1,0.,24.0,0.,24.0
1989-08-26T10:27:08.570 ,7,0,0.,24.0,0.,24.0
1989-08-26T10:27:32.570 ,6,1,0.,24.0,0.,24.0
1989-08-26T10:27:56.570 ,6,0,0.,24.0,0.,24.0
1989-08-26T10:28:20.570 ,5,1,0.,24.0,0.,24.0
1989-08-26T10:28:44.570 ,5,0,0.,24.0,0.,24.0
1989-08-26T10:29:08.570 ,4,1,0.,24.0,0.,24.0
1989-08-26T10:29:32.570 ,4,0,0.,24.0,0.,24.0
1989-08-26T10:29:56.570 ,3,1,0.,24.0,0.,24.0
1989-08-26T10:30:20.570 ,3,0,0.,24.0,0.,24.0
1989-08-26T10:30:44.570 ,2,1,0.,24.0,0.,24.0
1989-08-26T10:31:08.570 ,2,0,0.,24.0,0.,24.0
1989-08-26T10:31:32.570 ,1,1,0.,24.0,0.,24.0
1989-08-26T10:31:56.570 ,1,0,0.,24.0,0.,24.0
1989-08-26T10:32:20.570 ,0,1,0.,24.0,0.,24.0
1989-08-26T10:32:44.570 ,0,0,0.,24.0,0.,24.0
1989-08-26T10:33:08.570 ,0,1,0.,24.0,0.,24.0
1989-08-26T10:33:32.570 ,0,0,0.,24.0,0.,24.0
1989-08-26T10:33:56.570 ,1,1,0.,24.0,0.,24.0
1989-08-26T10:34:20.570 ,1,0,0.,24.0,0.,24.0
1989-08-26T10:34:44.570 ,2,1,0.,24.0,0.,24.0
1989-08-26T10:35:08.570 ,2,0,0.,24.0,0.,24.0
1989-08-26T10:35:32.570 ,3,1,0.,24.0,0.,24.0
1989-08-26T10:35:56.570 ,3,0,0.,24.0,0.,24.0
1989-08-26T10:36:20.570 ,4,1,0.,24.0,0.,24.0
1989-08-26T10:36:44.570 ,4,0,0.,24.0,0.,24.0
1989-08-26T10:37:08.570 ,5,1,0.,24.0,0.,24.0
1989-08-26T10:37:32.570 ,5,0,0.,24.0,0.,24.0
1989-08-26T10:37:56.570 ,6,1,0.,24.0,0.,24.0
1989-08-26T10:38:20.570 ,6,0,0.,24.0,0.,24.0
1989-08-26T10:38:44.570 ,7,1,0.,24.0,0.,24.0
1989-08-26T10:39:08.570 ,7,0,0.,24.0,0.,24.0
1989-08-26T10:39:32.570 ,7,1,0.,24.0,0.,24.0
1989-08-26T10:39:56.570 ,7,0,0.,24.0,0.,24.0
1989-08-26T10:40:20.570 ,6,1,0.,24.0,0.,24.0
1989-08-26T10:40:44.570 ,6,0,0.,24.0,0.,24.0
1989-08-26T10:41:08.570 ,5,1,0.,24.0,0.,24.0
1989-08-26T10:41:32.570 ,5,0,0.,24.0,0.,24.0
1989-08-26T10:41:56.570 ,4,1,0.,24.0,0.,24.0
1989-08-26T10:42:20.570 ,4,0,0.,24.0,0.,24.0
1989-08-26T10:42:44.570 ,3,1,0.,24.0,0.,24.0
1989-08-26T10:43:08.570 ,3,0,0.,24.0,0.,24.0
1989-08-26T10:43:32.570 ,0,0,,0,,0
1989-08-26T10:43:56.570 ,0,0,0.,24.0,0.,24.0
1989-08-26T10:44:20.570 ,1,1,0.,24.0,0.,24.0
1989-08-26T10:44:44.570 ,1,0,0.,24.0,0.,24.0
1989-08-26T10:45:08.570 ,0,1,0.,24.0,0.,24.0
1989-08-26T10:45:32.570 ,0,0,0.,24.0,0.,24.0
1989-08-26T10:45:56.570 ,0,1,0.,24.0,0.,24.0
1989-08-26T10:46:20.570 ,0,0,0.,24.0,0.,24.0
1989-08-26T10:46:44.570 ,1,1,0.,24.0,0.,24.0
1989-08-26T10:47:08.570 ,1,0,0.,24.0,0.,24.0
1989-08-26T10:47:32.570 ,2,1,0.,24.0,0.,24.0
1989-08-26T10:47:56.570 ,2,0,0.,24.0,0.,24.0
1989-08-26T10:48:20.570 ,3,1,0.,24.0,0.,24.0
1989-08-26T10:48:44.570 ,3,0,0.,24.0,0.,24.0
1989-08-26T10:49:08.570 ,4,1,0.,24.0,0.,24.0
1989-08-26T10:49:32.570 ,4,0,0.,24.0,0.,24.0
1989-08-26T10:49:56.570 ,5,1,0.,24.0,0.,24.0
1989-08-26T10:50:20.570 ,5,0,0.,24.0,0.,24.0
1989-08-26T10:50:44.570 ,6,1,0.,24.0,0.,24.0
1989-08-26T10:51:08.570 ,6,0,0.,24.0,0.,24.0
1989-08-26T10:51:32.570 ,7,1,0.,24.0,0.,24.0
1989-08-26T10:51:56.570 ,7,0,0.,24.0,0.,24.0
1989-08-26T10:52:20.570 ,7,1,0.,24.0,0.,24.0
1989-08-26T10:52:44.570 ,7,0,0.,24.0,0.,24.0
1989-08-26T10:53:08.570 ,6,1,0.,24.0,0.,24.0
1989-08-26T10:53:32.570 ,6,0,0.,24.0,0.,24.0
1989-08-26T10:53:56.570 ,5,1,0.,24.0,0.,24.0
1989-08-26T10:54:20.570 ,5,0,0.,24.0,0.,24.0
1989-08-26T10:54:44.570 ,4,1,0.,24.0,0.,24.0
1989-08-26T10:55:08.570 ,4,0,0.,24.0,0.,24.0
1989-08-26T10:55:32.570 ,3,1,0.,24.0,0.,24.0
1989-08-26T10:55:56.570 ,3,0,0.,24.0,0.,24.0
1989-08-26T10:56:20.570 ,2,1,0.,24.0,0.,24.0
1989-08-26T10:56:44.570 ,2,0,0.,24.0,0.,24.0
1989-08-26T10:57:08.570 ,1,1,0.,24.0,0.,24.0
1989-08-26T10:57:32.570 ,1,0,0.,24.0,0.,24.0
1989-08-26T10:57:56.570 ,0,1,0.,24.0,0.,24.0
1989-08-26T10:58:20.570 ,0,0,0.,24.0,0.,24.0
1989-08-26T10:58:44.570 ,0,1,0.,24.0,0.,24.0
1989-08-26T10:59:08.570 ,0,0,0.,24.0,0.,24.0
1989-08-26T10:59:32.570 ,1,1,0.,24.0,0.,24.0
1989-08-26T10:59:56.570 ,1,0,0.,24.0,0.,24.0
1989-08-26T11:00:20.570 ,2,1,0.,24.0,0.,24.0
1989-08-26T11:00:44.570 ,2,0,0.,24.0,0.,24.0
1989-08-26T11:01:08.570 ,3,1,0.,24.0,0.,24.0
1989-08-26T11:01:32.570 ,3,0,0.,24.0,0.,24.0
1989-08-26T11:01:56.570 ,4,1,0.,24.0,0.,24.0
1989-08-26T11:02:20.570 ,4,0,0.,24.0,0.,24.0
1989-08-26T11:02:44.570 ,5,1,0.,24.0,0.,24.0
1989-08-26T11:03:08.570 ,5,0,0.,24.0,0.,24.0
1989-08-26T11:03:32.570 ,6,1,0.,24.0,0.,24.0
1989-08-26T11:03:56.570 ,6,0,0.,24.0,0.,24.0
1989-08-26T11:04:20.570 ,7,1,0.,24.0,0.,24.0
1989-08-26T11:04:44.570 ,7,0,0.,24.0,0.,24.0
1989-08-26T11:05:08.570 ,7,1,0.,24.0,0.,24.0
1989-08-26T11:05:32.570 ,7,0,0.,24.0,0.,24.0
1989-08-26T11:05:56.570 ,6,1,0.,24.0,0.,24.0
1989-08-26T11:06:20.570 ,6,0,0.,24.0,0.,24.0
1989-08-26T11:06:44.570 ,5,1,0.,24.0,0.,24.0
1989-08-26T11:07:08.570 ,5,0,0.,24.0,0.,24.0
1989-08-26T11:07:32.570 ,4,1,0.,24.0,0.,24.0
1989-08-26T11:07:56.570 ,4,0,0.,24.0,0.,24.0
1989-08-26T11:08:20.570 ,3,1,0.,24.0,0.,24.0
1989-08-26T11:08:44.570 ,3,0,0.,24.0,0.,24.0
1989-08-26T11:09:08.570 ,2,1,0.,24.0,0.,24.0
1989-08-26T11:09:32.570 ,2,0,0.,24.0,0.,24.0
1989-08-26T11:09:56.570 ,1,1,0.,24.0,0.,24.0
1989-08-26T11:10:20.570 ,1,0,0.,24.0,0.,24.0
1989-08-26T11:10:44.570 ,0,1,0.,24.0,0.,24.0
1989-08-26T11:11:08.570 ,0,0,0.,24.0,0.,24.0
1989-08-26T11:11:32.570 ,0,1,0.,24.0,0.,24.0
1989-08-26T11:11:56.570 ,0,0,0.,24.0,0.,24.0
1989-08-26T11:12:20.570 ,1,1,0.,24.0,0.,24.0
1989-08-26T11:12:44.570 ,1,0,0.,24.0,0.,24.0
1989-08-26T11:13:08.570 ,2,1,0.,24.0,0.,24.0
1989-08-26T11:13:32.570 ,2,0,0.,24.0,0.,24.0
1989-08-26T11:13:56.570 ,3,1,0.,24.0,0.,24.0
1989-08-26T11:14:20.570 ,3,0,0.,24.0,0.,24.0
1989-08-26T11:14:44.570 ,4,1,0.,24.0,0.,24.0
1989-08-26T11:15:08.570 ,4,0,0.,24.0,0.,24.0
1989-08-26T11:15:32.570 ,5,1,0.,24.0,0.,24.0
1989-08-26T11:15:56.570 ,5,0,0.,24.0,0.,24.0
1989-08-26T11:16:20.570 ,6,1,0.,24.0,0.,24.0
1989-08-26T11:16:44.570 ,6,0,0.,24.0,0.,24.0
1989-08-26T11:17:08.570 ,7,1,0.,24.0,0.,24.0
1989-08-26T11:17:32.570 ,7,0,0.,24.0,0.,24.0
1989-08-26T11:17:56.570 ,7,1,0.,24.0,0.,24.0
1989-08-26T11:18:20.570 ,7,0,0.,24.0,0.,24.0
1989-08-26T11:18:44.570 ,6,1,0.,24.0,0.,24.0
1989-08-26T11:19:08.570 ,6,0,0.,24.0,0.,24.0
1989-08-26T11:19:32.570 ,5,1,0.,24.0,0.,24.0
1989-08-26T11:19:56.570 ,5,0,0.,24.0,0.,24.0
1989-08-26T11:20:20.570 ,4,1,0.,24.0,0.,24.0
1989-08-26T11:20:44.570 ,4,0,0.,24.0,0.,24.0
1989-08-26T11:21:08.570 ,3,1,0.,24.0,0.,24.0
1989-08-26T11:21:32.570 ,3,0,0.,24.0,0.,24.0
1989-08-26T11:21:56.570 ,2,1,0.,24.0,0.,24.0
1989-08-26T11:22:20.570 ,2,0,0.,24.0,0.,24.0
1989-08-26T11:22:44.570 ,1,1,0.,24.0,0.,24.0
1989-08-26T11:23:08.570 ,1,0,0.,24.0,0.,24.0
1989-08-26T11:23:32.570 ,0,1,0.,24.0,0.,24.0
1989-08-26T11:23:56.570 ,0,0,0.,24.0,0.,24.0
1989-08-26T11:24:20.570 ,0,1,0.,24.0,0.,24.0
1989-08-26T11:24:44.570 ,0,0,0.,24.0,0.,24.0
1989-08-26T11:25:08.570 ,1,1,0.,24.0,0.,24.0
1989-08-26T11:25:32.570 ,1,0,0.,24.0,0.,24.0
1989-08-26T11:25:56.570 ,2,1,0.,24.0,0.,24.0
1989-08-26T11:26:20.570 ,2,0,0.,24.0,0.,24.0
1989-08-26T11:26:44.570 ,3,1,0.,24.0,0.,24.0
1989-08-26T11:27:08.570 ,3,0,0.,24.0,0.,24.0
1989-08-26T11:27:32.570 ,4,1,0.,24.0,0.,24.0
1989-08-26T11:27:56.570 ,4,0,0.,24.0,0.,24.0
1989-08-26T11:28:20.570 ,5,1,0.,24.0,0.,24.0
1989-08-26T11:28:44.570 ,5,0,0.,24.0,0.,24.0
1989-08-26T11:29:08.570 ,6,1,0.,24.0,0.,24.0
1989-08-26T11:29:32.570 ,6,0,0.,24.0,0.,24.0
1989-08-26T11:29:56.570 ,7,1,0.,24.0,0.,24.0
1989-08-26T11:30:20.570 ,7,0,0.,24.0,0.,24.0
1989-08-26T11:30:44.560 ,7,1,0.,24.0,0.,24.0
1989-08-26T11:31:08.560 ,7,0,0.,24.0,0.,24.0
1989-08-26T11:31:32.560 ,6,1,0.,24.0,0.,24.0
1989-08-26T11:31:56.560 ,6,0,0.,24.0,0.,24.0
1989-08-26T11:32:20.560 ,5,1,0.,24.0,0.,24.0
1989-08-26T11:32:44.560 ,5,0,0.,24.0,0.,24.0
1989-08-26T11:33:08.560 ,4,1,0.,24.0,0.,24.0
1989-08-26T11:33:32.560 ,4,0,0.,24.0,0.,24.0
1989-08-26T11:33:56.560 ,3,1,0.,24.0,0.,24.0
1989-08-26T11:34:20.560 ,3,0,0.,24.0,0.,24.0
1989-08-26T11:34:44.560 ,2,1,0.,24.0,0.,24.0
1989-08-26T11:35:08.560 ,2,0,0.,24.0,0.,24.0
1989-08-26T11:35:32.560 ,1,1,0.,24.0,0.,24.0
1989-08-26T11:35:56.560 ,1,0,0.,24.0,0.,24.0
1989-08-26T11:36:20.560 ,0,1,0.,24.0,0.,24.0
1989-08-26T11:36:44.560 ,0,0,0.,24.0,0.,24.0
1989-08-26T11:37:08.560 ,0,1,0.,24.0,0.,24.0
1989-08-26T11:37:32.560 ,0,0,0.,24.0,0.,24.0
1989-08-26T11:37:56.560 ,1,1,0.,24.0,0.,24.0
1989-08-26T11:38:20.560 ,1,0,0.,24.0,0.,24.0
1989-08-26T11:38:44.560 ,2,1,0.,24.0,0.,24.0
1989-08-26T11:39:08.560 ,2,0,0.,24.0,0.,24.0
1989-08-26T11:39:32.560 ,3,1,0.,24.0,0.,24.0
1989-08-26T11:39:56.560 ,3,0,0.,24.0,0.,24.0
1989-08-26T11:40:20.560 ,4,1,0.,24.0,0.,24.0
1989-08-26T11:40:44.560 ,4,0,0.,24.0,0.,24.0
1989-08-26T11:41:08.560 ,5,1,0.,24.0,0.,24.0
1989-08-26T11:41:32.560 ,5,0,0.,24.0,0.,24.0
1989-08-26T11:41:56.560 ,6,1,0.,24.0,0.,24.0
1989-08-26T11:42:20.560 ,6,0,0.,24.0,0.,24.0
1989-08-26T11:42:44.560 ,7,1,0.,24.0,0.,24.0
1989-08-26T11:43:08.560 ,7,0,0.,24.0,0.,24.0
1989-08-26T11:43:32.560 ,7,1,0.,24.0,0.,24.0
1989-08-26T11:43:56.560 ,7,0,0.,24.0,0.,24.0
1989-08-26T11:44:20.560 ,6,1,0.,24.0,0.,24.0
1989-08-26T11:44:44.560 ,6,0,0.,24.0,0.,24.0
1989-08-26T11:45:08.560 ,5,1,0.,24.0,0.,24.0
1989-08-26T11:45:32.560 ,5,0,0.,24.0,0.,24.0
1989-08-26T11:45:56.560 ,4,1,0.,24.0,0.,24.0
1989-08-26T11:46:20.560 ,4,0,0.,24.0,0.,24.0
1989-08-26T11:46:44.560 ,3,1,0.,24.0,0.,24.0
1989-08-26T11:47:08.560 ,3,0,0.,24.0,0.,24.0
1989-08-26T11:47:32.560 ,2,1,0.,24.0,0.,24.0
1989-08-26T11:47:56.560 ,2,0,0.,24.0,0.,24.0
1989-08-26T11:48:20.560 ,1,1,0.,24.0,0.,24.0
1989-08-26T11:48:44.560 ,1,0,0.,24.0,0.,24.0
1989-08-26T11:49:08.560 ,0,1,0.,24.0,0.,24.0
1989-08-26T11:49:32.560 ,0,0,0.,24.0,0.,24.0
1989-08-26T11:49:56.560 ,0,1,0.,24.0,0.,24.0
1989-08-26T11:50:20.560 ,0,0,0.,24.0,0.,24.0
1989-08-26T11:50:44.560 ,1,1,0.,24.0,0.,24.0
1989-08-26T11:51:08.560 ,1,0,0.,24.0,0.,24.0
1989-08-26T11:51:32.560 ,2,1,0.,24.0,0.,24.0
1989-08-26T11:51:56.560 ,2,0,0.,24.0,0.,24.0
1989-08-26T11:52:20.560 ,3,1,0.,24.0,0.,24.0
1989-08-26T11:52:44.560 ,3,0,0.,24.0,0.,24.0
1989-08-26T11:53:08.560 ,4,1,0.,24.0,0.,24.0
1989-08-26T11:53:32.560 ,4,0,0.,24.0,0.,24.0
1989-08-26T11:53:56.560 ,5,1,0.,24.0,0.,24.0
1989-08-26T11:54:20.560 ,5,0,0.,24.0,0.,24.0
1989-08-26T11:54:44.560 ,6,1,0.,24.0,0.,24.0
1989-08-26T11:55:08.560 ,6,0,0.,24.0,0.,24.0
1989-08-26T11:55:32.560 ,7,1,0.,24.0,0.,24.0
1989-08-26T11:55:56.560 ,7,0,0.,24.0,0.,24.0
1989-08-26T11:56:20.560 ,7,1,0.,24.0,0.,24.0
1989-08-26T11:56:44.560 ,7,0,0.,24.0,0.,24.0
1989-08-26T11:57:08.560 ,6,1,0.,24.0,0.,24.0
1989-08-26T11:57:32.560 ,6,0,0.,24.0,0.,24.0
1989-08-26T11:57:56.560 ,5,1,0.,24.0,0.,24.0
1989-08-26T11:58:20.560 ,5,0,0.,24.0,0.,24.0
1989-08-26T11:58:44.560 ,4,1,0.,24.0,0.,24.0
1989-08-26T11:59:08.560 ,4,0,0.,24.0,0.,24.0
1989-08-26T11:59:32.560 ,3,1,0.,24.0,0.,24.0
1989-08-26T11:59:56.560 ,3,0,0.,24.0,0.,24.0
1989-08-26T12:00:20.560 ,2,1,0.,24.0,0.,24.0
